• In United Kingdom
  • List of Countries
  • For 7 days
  • Water Temperature
  • Satellite Maps
  • Weather Map
  • Weather Widgets
  • user-avatar
    Login

    Hourly Weather Tetuan

    Today, 20 August, Sunday

    Time Temperature Precipitation Wind Pressure Humidity
    00:00 +27°C° 0 mm 4 mps 756 mmHg 80%
    01:00 +27°C° 0 mm 4 mps 756 mmHg 80%
    02:00 +27°C° 0 mm 4 mps 755 mmHg 81%
    03:00 +26°C° 0 mm 4 mps 755 mmHg 81%
    04:00 +26°C° 0 mm 4 mps 755 mmHg 83%
    05:00 +26°C° 0 mm 4 mps 755 mmHg 84%
    06:00 +26°C° 0 mm 3 mps 756 mmHg 85%
    07:00 +28°C° 0 mm 4 mps 756 mmHg 77%
    08:00 +30°C° 0 mm 4 mps 756 mmHg 69%
    09:00 +33°C° 0 mm 4 mps 756 mmHg 61%
    10:00 +34°C° 0 mm 4 mps 756 mmHg 56%
    11:00 +36°C° 0 mm 5 mps 756 mmHg 51%
    12:00 +39°C° 0 mm 5 mps 756 mmHg 46%
    13:00 +39°C° 0 mm 5 mps 756 mmHg 45%
    14:00 +39°C° 0 mm 5 mps 755 mmHg 45%
    15:00 +39°C° 0 mm 5 mps 755 mmHg 45%
    16:00 +37°C° 0 mm 5 mps 755 mmHg 50%
    17:00 +35°C° 0 mm 5 mps 755 mmHg 55%
    18:00 +34°C° 0 mm 5 mps 755 mmHg 60%
    19:00 +32°C° 0 mm 5 mps 755 mmHg 67%
    20:00 +30°C° 0 mm 4 mps 756 mmHg 73%
    21:00 +28°C° 0 mm 4 mps 756 mmHg 79%
    22:00 +28°C° 0 mm 4 mps 756 mmHg 80%
    23:00 +27°C° 0 mm 4 mps 756 mmHg 81%

    Tomorrow, 21 August, Monday

    Time Temperature Precipitation Wind Pressure Humidity
    00:00 +27°C° 0 mm 4 mps 756 mmHg 82%
    01:00 +27°C° 0 mm 4 mps 756 mmHg 83%
    02:00 +27°C° 0 mm 4 mps 756 mmHg 83%
    03:00 +26°C° 0 mm 4 mps 756 mmHg 84%
    04:00 +26°C° 0 mm 4 mps 756 mmHg 85%
    05:00 +26°C° 0 mm 4 mps 756 mmHg 86%
    06:00 +26°C° 0 mm 4 mps 756 mmHg 87%
    07:00 +28°C° 0 mm 4 mps 756 mmHg 77%
    08:00 +30°C° 0 mm 4 mps 756 mmHg 67%
    09:00 +33°C° 0 mm 4 mps 756 mmHg 57%
    10:00 +35°C° 0 mm 4 mps 756 mmHg 52%
    11:00 +37°C° 0 mm 4 mps 756 mmHg 46%
    12:00 +38°C° 0 mm 4 mps 756 mmHg 41%
    13:00 +38°C° 0 mm 4 mps 755 mmHg 41%
    14:00 +39°C° 0 mm 5 mps 755 mmHg 41%
    15:00 +39°C° 0 mm 5 mps 755 mmHg 42%
    16:00 +37°C° 0 mm 4 mps 754 mmHg 47%
    17:00 +35°C° 0 mm 4 mps 754 mmHg 53%
    18:00 +34°C° 0 mm 4 mps 754 mmHg 59%
    19:00 +32°C° 0 mm 4 mps 755 mmHg 66%
    20:00 +29°C° 0 mm 4 mps 755 mmHg 74%
    21:00 +28°C° 0 mm 3 mps 756 mmHg 81%
    22:00 +27°C° 0 mm 3 mps 756 mmHg 82%
    23:00 +27°C° 0 mm 4 mps 756 mmHg 82%

    Day after tomorrow, 22 August, Tuesday

    Time Temperature Precipitation Wind Pressure Humidity
    00:00 +26°C° 0 mm 4 mps 756 mmHg 83%
    01:00 +26°C° 0 mm 3 mps 756 mmHg 82%
    02:00 +26°C° 0 mm 3 mps 755 mmHg 82%
    03:00 +26°C° 0 mm 3 mps 755 mmHg 81%
    04:00 +26°C° 0 mm 3 mps 755 mmHg 81%
    05:00 +25°C° 0 mm 3 mps 755 mmHg 82%
    06:00 +25°C° 0 mm 3 mps 755 mmHg 82%
    07:00 +27°C° 0 mm 3 mps 756 mmHg 73%
    08:00 +30°C° 0 mm 3 mps 756 mmHg 64%
    09:00 +33°C° 0 mm 3 mps 756 mmHg 55%
    10:00 +35°C° 0 mm 3 mps 756 mmHg 50%
    11:00 +36°C° 0 mm 3 mps 756 mmHg 44%
    12:00 +38°C° 0 mm 4 mps 755 mmHg 39%
    13:00 +38°C° 0 mm 4 mps 755 mmHg 39%
    14:00 +38°C° 0 mm 4 mps 754 mmHg 40%
    15:00 +38°C° 0 mm 4 mps 754 mmHg 40%
    16:00 +37°C° 0 mm 3 mps 754 mmHg 44%
    17:00 +36°C° 0 mm 3 mps 754 mmHg 49%
    18:00 +35°C° 0 mm 3 mps 754 mmHg 54%
    19:00 +33°C° 0 mm 3 mps 754 mmHg 62%
    20:00 +30°C° 0 mm 3 mps 755 mmHg 71%
    21:00 +28°C° 0 mm 3 mps 755 mmHg 79%
    22:00 +27°C° 0 mm 2 mps 755 mmHg 79%
    23:00 +27°C° 0 mm 2 mps 755 mmHg 79%

    23 August, Wednesday

    Time Temperature Precipitation Wind Pressure Humidity
    00:00 +27°C° 0 mm 2 mps 755 mmHg 79%
    01:00 +26°C° 0 mm 2 mps 755 mmHg 79%
    02:00 +26°C° 0 mm 2 mps 754 mmHg 79%
    03:00 +26°C° 0 mm 2 mps 754 mmHg 79%
    04:00 +26°C° 0 mm 2 mps 754 mmHg 80%
    05:00 +26°C° 0 mm 2 mps 754 mmHg 81%
    06:00 +25°C° 0 mm 2 mps 754 mmHg 82%
    07:00 +28°C° 0 mm 2 mps 754 mmHg 71%
    08:00 +30°C° 0 mm 2 mps 754 mmHg 61%
    09:00 +34°C° 0 mm 2 mps 755 mmHg 51%
    10:00 +35°C° 0 mm 3 mps 755 mmHg 45%
    11:00 +37°C° 0 mm 3 mps 755 mmHg 39%
    12:00 +39°C° 0 mm 3 mps 755 mmHg 33%
    13:00 +39°C° 0 mm 3 mps 754 mmHg 32%
    14:00 +40°C° 0 mm 4 mps 754 mmHg 31%
    15:00 +40°C° 0 mm 4 mps 753 mmHg 31%
    16:00 +38°C° 0 mm 4 mps 753 mmHg 34%
    17:00 +37°C° 0 mm 3 mps 753 mmHg 37%
    18:00 +36°C° 0 mm 3 mps 753 mmHg 40%
    19:00 +34°C° 0 mm 3 mps 754 mmHg 48%
    20:00 +31°C° 0 mm 3 mps 754 mmHg 55%
    21:00 +29°C° 0 mm 2 mps 755 mmHg 62%
    22:00 +28°C° 0 mm 2 mps 755 mmHg 63%
    23:00 +28°C° 0 mm 2 mps 755 mmHg 63%

    24 August, Thursday

    Time Temperature Precipitation Wind Pressure Humidity
    00:00 +28°C° 0 mm 2 mps 755 mmHg 63%
    01:00 +27°C° 0 mm 2 mps 754 mmHg 65%
    02:00 +27°C° 0 mm 2 mps 754 mmHg 67%
    03:00 +27°C° 0 mm 2 mps 754 mmHg 68%
    04:00 +26°C° 0 mm 2 mps 754 mmHg 69%
    05:00 +26°C° 0 mm 2 mps 754 mmHg 70%
    06:00 +26°C° 0 mm 2 mps 754 mmHg 70%
    07:00 +28°C° 0 mm 2 mps 754 mmHg 62%
    08:00 +31°C° 0 mm 2 mps 755 mmHg 54%
    09:00 +34°C° 0 mm 2 mps 755 mmHg 46%
    10:00 +36°C° 0 mm 2 mps 755 mmHg 42%
    11:00 +37°C° 0 mm 3 mps 754 mmHg 38%
    12:00 +38°C° 0 mm 3 mps 754 mmHg 35%
    13:00 +38°C° 0 mm 3 mps 754 mmHg 35%
    14:00 +38°C° 0 mm 3 mps 754 mmHg 35%
    15:00 +38°C° 0 mm 3 mps 753 mmHg 35%
    16:00 +37°C° 0 mm 3 mps 753 mmHg 38%
    17:00 +36°C° 0 mm 3 mps 753 mmHg 42%
    18:00 +35°C° 0 mm 2 mps 753 mmHg 46%
    19:00 +32°C° 0 mm 2 mps 753 mmHg 52%
    20:00 +30°C° 0 mm 2 mps 754 mmHg 58%
    21:00 +29°C° 0 mm 1 mps 754 mmHg 64%
    22:00 +28°C° 0 mm 1 mps 754 mmHg 66%
    23:00 +28°C° 0 mm 1 mps 754 mmHg 69%

    25 August, Friday

    Time Temperature Precipitation Wind Pressure Humidity
    00:00 +27°C° 0 mm 1 mps 754 mmHg 71%
    01:00 +26°C° 0 mm 1 mps 754 mmHg 72%
    02:00 +26°C° 0 mm 1 mps 754 mmHg 73%
    03:00 +26°C° 0 mm 1 mps 753 mmHg 74%
    04:00 +25°C° 0 mm 1 mps 753 mmHg 75%
    05:00 +25°C° 0 mm 1 mps 753 mmHg 75%
    06:00 +25°C° 0 mm 1 mps 754 mmHg 76%
    07:00 +27°C° 0 mm 1 mps 754 mmHg 66%
    08:00 +29°C° 0 mm 1 mps 754 mmHg 57%
    09:00 +31°C° 0 mm 1 mps 754 mmHg 48%
    10:00 +34°C° 0 mm 2 mps 754 mmHg 43%
    11:00 +35°C° 0 mm 2 mps 754 mmHg 39%
    12:00 +36°C° 0 mm 3 mps 753 mmHg 35%
    13:00 +36°C° 0 mm 3 mps 753 mmHg 34%
    14:00 +36°C° 0 mm 3 mps 753 mmHg 33%
    15:00 +36°C° 0 mm 3 mps 753 mmHg 32%
    16:00 +35°C° 0 mm 3 mps 753 mmHg 34%
    17:00 +34°C° 0 mm 3 mps 753 mmHg 35%
    18:00 +31°C° 0 mm 3 mps 753 mmHg 37%
    19:00 +30°C° 0 mm 3 mps 753 mmHg 41%
    20:00 +28°C° 0 mm 3 mps 753 mmHg 46%
    21:00 +26°C° 0 mm 3 mps 754 mmHg 50%
    22:00 +26°C° 0 mm 3 mps 754 mmHg 50%
    23:00 +25°C° 0 mm 3 mps 754 mmHg 51%
    Show more